Temp
3 3 2 2 2 2 1 1 -0 -1 -1 0 1 1 1 1 1 1 1 2 2 2 2 2 3 4 5 5 5 5 5 5 5 5 6 6 6 7
2 2 2 2 1 1 1 0 0 -1 -2 -1 -1 -1 -0 0 0 1 1 1 1 1 1 2 2 3 4 4 4 4 4 5 5 5 5 5 5 6
2 1 1 1 1 0 0 -0 -0 -1 -2 -1 -1 -1 -1 -0 -0 0 0 1 1 0 1 1 2 2 3 3 4 4 4 4 4 4 4 4 4 5
1 1 1 0 0 0 -0 -1 -1 -1 -2 -2 -1 -1 -1 -1 -1 -0 -0 -0 0 0 0 1 1 2 2 3 4 4 3 3 3 3 4 3 4 4
1 0 0 0 -0 -0 -1 -1 -1 -1 -1 -2 -2 -2 -1 -1 -1 -1 -1 -0 -0 -0 -0 0 0 1 1 2 3 3 3 3 3 3 3 3 3 4
0 -0 -0 -1 -1 -1 -1 -1 -1 -1 -2 -2 -2 -2 -1 -1 -1 -1 -2 -1 -1 -1 -1 -1 -0 -0 0 1 2 2 2 2 2 2 3 3 3 3
-1 -1 -1 -1 -2 -2 -1 -2 -2 -2 -2 -2 -2 -1 -1 -1 -2 -2 -2 -1 -1 -1 -1 -1 -1 -1 -1 -1 0 1 1 1 1 2 2 3 3 3
-1 -2 -2 -2 -2 -2 -3 -2 -2 -2 -2 -2 -2 -2 -2 -2 -2 -2 -2 -2 -2 -1 -1 -1 -1 -1 -1 -0 0 1 0 1 1 2 2 2 2 2
-2 -3 -3 -3 -3 -3 -3 -3 -2 -2 -2 -2 -2 -3 -3 -3 -3 -3 -3 -2 -2 -2 -1 -2 -2 -1 -1 -0 -1 -0 0 0 1 1 1 2 2 2
-3 -3 -3 -3 -3 -3 -3 -3 -3 -3 -3 -3 -3 -3 -3 -3 -2 -2 -2 -2 -2 -2 -2 -2 -1 -1 -1 -1 -0 -0 0 0 0 1 1 1 1 1
-3 -3 -3 -3 -3 -3 -3 -3 -3 -3 -3 -3 -3 -3 -3 -3 -2 -2 -2 -2 -2 -2 -1 -2 -2 -2 -2 -1 0 1 1 0 0 1 1 1 1 1
-3 -3 -3 -3 -3 -2 -2 -3 -4 -4 -4 -4 -4 -4 -4 -4 -4 -3 -3 -3 -3 -2 -1 -2 -1 -2 -2 -0 -0 0 0 1 1 1 1 1 1 1
-3 -3 -3 -4 -3 -3 -3 -3 -4 -4 -4 -4 -5 -5 -5 -5 -5 -4 -4 -3 -3 -3 -2 -2 -2 -2 -2 -2 -1 -0 0 0 0 0 0 1 1 0
-3 -4 -4 -4 -4 -4 -4 -4 -3 -4 -5 -6 -6 -5 -5 -6 -6 -6 -5 -4 -4 -3 -3 -3 -3 -2 -2 -2 -3 -1 -0 -0 -0 0 0 0 0 0
-4 -4 -4 -5 -5 -5 -5 -4 -5 -6 -6 -6 -5 -5 -5 -5 -6 -6 -6 -5 -4 -4 -3 -3 -3 -3 -3 -2 -2 -3 -3 -1 -1 -0 -0 -0 -0 -0
-4 -5 -5 -5 -5 -5 -6 -6 -6 -6 -6 -6 -6 -6 -6 -5 -5 -5 -6 -6 -5 -4 -3 -3 -3 -3 -3 -3 -3 -3 -3 -3 -2 -2 -1 -1 -1 -1
-5 -5 -6 -6 -7 -6 -6 -6 -6 -6 -6 -6 -6 -6 -6 -6 -6 -5 -6 -6 -6 -5 -4 -4 -3 -3 -3 -3 -3 -2 -2 -3 -3 -2 -2 -2 -1 -1
-6 -7 -7 -7 -7 -7 -7 -7 -7 -7 -7 -7 -7 -7 -6 -7 -6 -6 -6 -6 -6 -6 -5 -4 -5 -4 -3 -3 -3 -3 -3 -2 -2 -2 -2 -3 -4 -1
-7 -7 -7 -7 -7 -7 -7 -7 -7 -7 -7 -8 -7 -7 -7 -7 -6 -6 -6 -6 -6 -6 -6 -5 -5 -5 -4 -4 -2 -2 -2 -2 -3 -3 -3 -3 -4 -2
-7 -8 -8 -7 -7 -8 -8 -8 -8 -8 -8 -8 -7 -8 -7 -7 -7 -6 -6 -6 -6 -6 -5 -5 -5 -5 -4 -5 -7 -3 -2 -2 -3 -3 -2 -2 -2 -2
-8 -8 -8 -8 -8 -8 -8 -8 -8 -8 -7 -8 -7 -7 -7 -7 -7 -7 -7 -6 -5 -6 -6 -6 -5 -4 -4 -4 -4 -4 -3 -3 -3 -3 -3 -3 -3 -3
-9 -9 -9 -9 -9 -9 -9 -9 -9 -8 -8 -8 -8 -8 -7 -7 -7 -7 -7 -7 -6 -6 -6 -6 -5 -5 -4 -5 -5 -3 -4 -4 -3 -4 -4 -3 -3 -9
-9 -9 -9 -9 -8 -9 -9 -9 -9 -9 -9 -8 -8 -7 -7 -7 -8 -8 -7 -7 -7 -6 -6 -6 -5 -5 -5 -5 -4 -4 -3 -3 -3 -4 -4 -3 -3 -3
Height
859 857 856 854 853 852 851 849 846 837 833 831 829 826 823 820 816 814 809 805 802 800 797 794 792 790 787 786 784 781 779 777 774 771 768 765 762 760
856 854 853 852 850 848 846 845 843 839 833 829 824 821 819 815 812 809 806 802 799 795 792 789 786 784 782 780 778 776 774 771 769 766 764 762 759 756
853 852 850 848 846 844 842 840 837 835 828 821 820 816 813 811 807 804 800 796 792 790 786 783 780 777 775 773 772 770 768 766 764 762 760 758 755 752
850 848 846 844 842 840 837 835 832 829 824 816 814 811 809 806 802 798 794 791 787 785 781 778 774 771 768 766 765 763 762 760 758 757 754 752 750 747
847 845 842 840 838 836 833 828 825 822 818 814 806 806 803 801 796 793 789 785 782 778 775 772 768 765 762 760 758 757 756 754 753 751 749 747 745 742
842 841 839 837 834 831 828 824 820 817 813 809 803 799 798 795 792 787 782 779 775 772 769 765 763 760 757 753 752 750 749 747 745 744 742 741 739 737
839 838 835 833 831 827 824 820 817 813 808 804 798 794 792 789 787 783 777 772 768 767 761 759 757 754 749 746 744 743 741 740 738 737 736 734 733 731
836 834 831 828 825 823 820 818 814 809 804 800 795 791 787 785 781 777 771 768 760 761 757 753 752 745 742 740 738 737 735 733 732 730 729 728 727 725
833 831 826 823 820 818 815 812 808 805 802 797 790 787 781 779 775 770 766 761 756 751 752 745 743 739 736 733 731 730 729 727 725 724 723 722 721 719
829 827 821 818 816 814 810 805 800 798 795 792 787 781 776 771 767 761 756 752 746 744 747 739 736 733 729 726 724 723 722 720 718 717 717 716 716 714
825 821 818 816 814 810 805 800 796 792 789 785 781 777 772 766 762 757 752 748 740 738 739 735 730 728 724 720 718 716 715 713 711 710 710 711 711 709
820 817 816 815 810 806 802 797 792 787 782 777 774 770 765 759 755 752 748 743 739 732 731 731 727 726 720 714 713 712 711 709 706 704 705 706 706 704
817 815 813 810 806 802 798 794 789 784 779 774 769 764 760 755 751 747 743 739 733 729 727 727 722 720 718 712 708 708 707 705 704 703 703 703 702 701
815 813 810 806 802 798 794 790 786 782 776 771 766 761 756 751 746 741 737 733 729 724 721 721 717 715 713 709 705 702 701 701 700 698 699 699 698 697
814 810 806 802 798 794 791 787 784 779 774 768 763 758 753 747 742 736 731 727 722 717 714 712 711 708 707 703 701 699 698 695 695 694 694 694 693 692
811 806 803 799 795 792 787 784 780 777 772 767 761 755 749 743 738 733 728 722 718 711 708 707 704 702 699 697 696 694 694 694 691 690 689 688 688 687
808 804 799 795 792 788 784 781 778 773 769 764 758 752 746 740 734 729 724 719 714 708 703 699 697 696 693 691 688 688 688 687 685 685 684 682 681 681
806 803 799 796 792 788 784 780 776 771 766 761 755 749 744 737 731 724 720 715 710 704 699 696 692 690 686 682 683 682 681 680 680 680 679 678 675 675
805 802 799 796 792 788 784 779 773 769 764 758 752 747 741 734 727 721 715 709 704 699 695 691 690 687 683 680 677 677 676 675 675 674 673 673 671 670
804 801 798 795 791 786 781 776 771 765 760 754 749 743 736 730 722 716 710 704 698 693 688 685 683 681 679 676 673 670 672 670 670 668 667 667 666 666
802 799 797 793 788 783 778 773 768 763 757 751 745 738 732 726 719 712 705 699 693 688 683 679 676 676 674 672 669 665 664 665 665 663 663 663 661 660
802 798 794 790 784 779 774 770 764 759 753 747 740 734 727 722 715 707 701 695 688 683 677 673 671 670 669 666 663 662 661 659 658 658 658 658 658 657
800 795 790 785 780 776 771 766 760 754 748 742 735 729 723 717 710 703 697 691 684 678 672 668 665 664 662 660 658 657 656 655 654 652 651 651 650 650
Wind_Speed
12 13 15 15 16 15 16 16 12 7 9 16 17 27 28 29 27 27 29 30 30 29 30 30 27 27 26 25 25 24 24 24 24 23 24 25 25 26
14 15 15 15 16 17 18 21 21 18 7 18 22 25 26 25 27 26 29 30 29 29 29 28 27 26 26 26 26 24 23 23 24 24 25 26 27 26
14 14 16 17 18 19 21 22 22 22 18 24 24 24 25 26 27 29 30 29 31 27 27 27 27 27 28 29 27 24 23 23 23 24 25 25 26 27
15 16 17 17 19 21 22 23 23 25 23 24 25 24 24 26 29 31 30 30 29 29 27 27 28 28 27 27 28 24 25 25 23 24 23 25 25 25
15 17 18 19 21 22 23 25 26 25 26 24 29 24 24 25 28 28 32 30 29 29 25 28 28 27 27 27 27 26 27 26 26 23 23 23 24 23
16 17 18 18 20 21 24 24 23 24 23 23 25 25 23 22 22 26 26 25 28 28 29 29 27 27 27 27 27 27 29 26 25 25 24 22 22 23
17 17 17 18 19 20 21 23 26 23 22 23 23 25 24 23 22 23 25 27 27 28 30 28 24 27 31 29 26 24 26 25 25 25 24 24 23 23
17 19 20 22 19 19 21 21 21 23 24 24 26 25 28 26 25 25 24 22 15 22 21 24 25 29 32 33 26 25 24 25 25 24 24 24 23 23
18 20 20 21 22 23 24 22 24 24 24 30 31 28 31 28 29 28 25 25 27 31 25 26 26 27 32 31 27 26 25 25 25 24 23 22 20 21
16 19 20 23 23 23 27 27 26 21 24 26 28 31 32 35 33 33 30 32 32 29 24 17 26 26 31 31 29 25 25 25 25 23 21 20 16 17
18 19 21 23 24 24 25 25 24 26 28 25 25 27 31 32 31 31 27 22 21 22 18 19 21 24 27 31 29 23 20 19 21 20 18 13 15 16
20 20 21 21 22 22 25 24 22 28 28 22 29 30 27 26 23 23 26 22 21 20 12 11 18 16 9 18 19 12 19 23 19 15 13 12 14 16
18 22 24 21 21 24 22 24 25 27 23 29 26 26 25 25 24 23 23 27 23 21 21 19 16 17 13 15 24 25 20 20 18 14 13 13 13 12
20 23 22 20 22 21 20 20 23 24 26 23 22 22 23 24 25 28 26 26 26 28 31 28 19 18 18 18 13 21 21 21 19 21 21 16 15 12
19 19 18 19 18 18 18 20 20 24 23 22 22 23 25 28 28 27 28 27 25 25 24 23 25 24 22 21 15 14 15 17 18 18 20 20 18 15
22 19 18 19 17 17 20 22 23 22 21 20 23 25 25 25 25 24 24 26 25 25 25 20 20 20 22 22 19 19 15 9 12 14 13 15 17 21
18 21 21 21 19 19 20 20 22 22 21 22 24 25 25 25 26 25 25 24 21 23 22 25 23 19 21 26 18 18 18 18 22 22 20 22 22 21
18 19 17 17 18 19 20 21 22 23 23 25 25 25 24 26 26 26 24 22 21 22 22 19 20 18 16 18 23 23 24 23 22 22 22 18 17 19
17 17 16 16 19 19 19 20 22 24 25 26 26 25 27 27 27 27 25 22 22 21 22 21 23 15 6 6 14 16 23 20 18 22 22 20 19 23
16 16 18 18 19 19 21 22 23 25 25 27 26 28 28 27 27 25 24 23 22 22 22 22 22 17 11 7 6 20 16 21 22 21 21 20 21 19
17 18 19 20 21 21 23 23 24 25 26 27 27 28 29 25 27 27 26 28 27 22 19 19 21 18 20 20 7 13 19 14 19 25 23 19 17 14
18 20 22 22 23 22 22 23 24 26 26 26 28 29 26 26 27 28 25 25 24 23 22 23 24 22 20 14 10 14 14 18 14 15 22 23 15 3
20 22 23 25 25 24 25 26 26 27 27 28 29 30 25 29 29 27 25 26 24 24 20 20 23 20 18 16 14 13 14 16 18 19 20 18 22 25
Wind_Direction
322 320 318 320 317 317 318 319 308 309 306 299 300 307 314 314 311 310 310 310 309 309 308 303 296 291 287 291 296 295 297 298 300 301 306 307 307 305
323 319 318 321 316 317 318 315 311 292 291 304 299 301 307 307 306 305 305 306 305 306 306 305 298 295 289 286 292 292 295 294 295 297 301 301 299 300
321 319 316 318 316 316 315 312 310 306 286 300 299 302 302 301 303 307 309 309 308 307 305 304 302 295 289 286 284 286 292 293 292 292 297 299 299 296
317 316 315 319 314 315 313 311 310 310 292 293 300 303 299 300 300 301 303 303 303 307 303 302 300 296 289 283 281 278 290 290 289 289 287 296 298 298
316 315 316 317 315 315 313 311 311 305 297 287 294 300 299 301 299 294 300 302 302 305 301 301 300 296 294 287 283 283 289 290 288 286 285 290 292 294
317 316 315 314 313 313 312 310 308 305 300 294 294 299 300 301 296 293 290 292 293 298 300 300 301 300 300 292 281 280 287 286 285 284 287 285 287 289
318 315 314 314 309 308 309 311 310 305 302 297 295 301 301 301 293 292 283 290 292 295 298 297 304 305 304 303 292 284 285 285 284 283 282 280 286 283
318 316 316 317 319 312 310 306 303 306 306 303 300 299 298 297 293 291 289 290 292 290 283 291 297 297 296 305 297 288 288 286 283 281 281 279 280 281
316 316 318 321 320 319 316 305 301 298 301 303 299 294 295 295 295 292 283 279 275 278 283 286 289 289 297 299 294 285 286 286 281 277 274 275 273 283
319 320 322 322 322 314 309 306 302 311 309 302 296 297 295 292 284 278 277 281 280 281 274 270 286 283 292 297 297 289 289 284 278 271 269 268 272 282
324 326 326 317 317 311 315 318 315 311 315 305 303 303 303 301 296 297 293 290 287 282 294 262 276 281 287 292 293 293 293 294 279 264 260 253 272 285
324 328 329 317 317 319 322 321 321 313 314 318 314 314 316 320 308 298 295 287 289 289 274 258 285 280 280 287 284 282 298 308 307 265 238 255 279 291
321 327 325 321 319 321 319 318 313 318 324 322 321 315 315 312 313 313 302 293 276 279 283 283 281 274 258 280 284 289 292 297 293 257 253 273 286 289
324 322 323 322 322 320 320 321 322 325 325 316 314 314 319 317 313 314 314 300 295 286 291 289 276 273 277 278 270 283 289 295 290 270 268 274 279 272
321 321 319 323 323 324 329 326 327 333 324 316 315 313 315 315 314 311 315 314 306 298 299 285 275 271 265 266 272 282 295 289 292 281 273 271 281 274
330 323 326 324 328 328 332 336 334 327 319 321 319 315 313 312 309 313 312 309 309 300 302 293 286 277 262 259 262 269 271 271 283 286 281 275 268 280
328 331 336 339 330 327 327 327 328 324 326 318 318 319 316 316 313 311 304 306 298 299 292 296 297 288 279 266 246 251 262 262 268 274 274 280 282 278
335 343 334 332 329 327 326 324 326 324 321 321 314 312 315 313 312 312 305 301 299 297 290 291 299 306 287 281 251 257 263 263 271 274 275 272 278 280
344 332 320 325 326 322 321 321 320 320 318 317 311 313 313 310 312 311 306 298 296 291 292 286 285 284 279 270 272 256 252 263 266 271 272 264 260 283
335 326 323 317 321 318 319 318 318 319 317 314 313 310 308 309 310 309 307 300 294 287 283 281 279 266 251 260 265 277 261 259 257 263 266 268 281 285
323 317 317 316 317 316 317 317 316 316 315 314 311 310 309 308 313 308 304 306 307 300 286 282 281 284 286 288 259 267 289 279 272 263 265 265 277 280
326 321 315 315 315 316 315 314 313 315 313 311 309 311 307 318 314 309 306 305 303 298 284 281 288 288 285 266 253 274 281 299 302 266 260 260 249 233
325 323 320 324 327 323 322 318 313 312 312 310 309 312 309 320 317 309 305 305 304 305 291 278 286 285 276 263 251 257 271 285 288 287 276 260 253 261